START_TIME,STEP,MOV.,M34,t_acc.,L5,t_acc.,L18,t_acc.,L14,t_acc.
1989-08-26T15:00:25.350 ,1,0,0.,12.0,0.,12.0,0.,12.0,0.,12.0
1989-08-26T15:00:37.350 ,1,0,0.,12.0,0.,12.0,0.,12.0,0.,12.0
1989-08-26T15:00:49.350 ,0,1,0.,12.0,0.,12.0,0.,12.0,0.,12.0
1989-08-26T15:01:01.350 ,0,1,0.,12.0,0.,12.0,0.,12.0,0.,12.0
1989-08-26T15:01:13.350 ,0,0,0.,12.0,0.,12.0,0.,12.0,0.,12.0
1989-08-26T15:01:25.350 ,0,0,0.,12.0,0.,12.0,0.,12.0,0.,12.0
1989-08-26T15:01:37.350 ,0,1,0.,12.0,0.,12.0,0.,12.0,0.,12.0
1989-08-26T15:01:49.350 ,0,1,0.,12.0,0.,12.0,0.,12.0,0.,12.0
1989-08-26T15:02:01.350 ,0,0,0.,12.0,0.,12.0,0.,12.0,0.,12.0
1989-08-26T15:02:13.350 ,0,0,0.,12.0,0.,12.0,0.,12.0,0.,12.0
1989-08-26T15:02:25.350 ,1,1,0.,12.0,0.,12.0,0.,12.0,0.,12.0
1989-08-26T15:02:37.350 ,1,1,0.,12.0,0.,12.0,0.,12.0,0.,12.0
1989-08-26T15:02:49.350 ,1,0,0.,12.0,0.,12.0,0.,12.0,0.,12.0
1989-08-26T15:03:01.350 ,1,0,0.,12.0,0.,12.0,0.,12.0,0.,12.0
1989-08-26T15:03:13.350 ,2,1,0.,12.0,0.,12.0,0.,12.0,0.,12.0
1989-08-26T15:03:25.350 ,2,1,0.,12.0,0.,12.0,0.,12.0,0.,12.0
1989-08-26T15:03:37.350 ,2,0,0.,12.0,0.,12.0,0.,12.0,0.,12.0
1989-08-26T15:03:49.350 ,2,0,0.,12.0,0.,12.0,0.,12.0,0.,12.0
1989-08-26T15:04:01.350 ,3,1,0.,12.0,0.,12.0,0.,12.0,0.,12.0
1989-08-26T15:04:13.350 ,3,1,0.,12.0,0.,12.0,0.,12.0,0.,12.0
1989-08-26T15:04:25.350 ,3,0,0.,12.0,0.,12.0,0.,12.0,0.,12.0
1989-08-26T15:04:37.350 ,3,0,0.,12.0,0.,12.0,0.,12.0,0.,12.0
1989-08-26T15:04:49.350 ,4,1,0.,12.0,0.,12.0,0.,12.0,0.,12.0
1989-08-26T15:05:01.350 ,4,1,0.,12.0,0.,12.0,0.,12.0,0.,12.0
1989-08-26T15:05:13.350 ,4,0,0.,12.0,0.,12.0,0.,12.0,0.,12.0
1989-08-26T15:05:25.350 ,4,0,0.,12.0,0.,12.0,0.,12.0,0.,12.0
1989-08-26T15:05:37.350 ,5,1,0.,12.0,0.,12.0,0.,12.0,0.,12.0
1989-08-26T15:05:49.350 ,5,1,0.,12.0,0.,12.0,0.,12.0,0.,12.0
1989-08-26T15:06:01.350 ,5,1,,0,,0,,0,,0
1989-08-26T15:06:13.350 ,5,1,,0,,0,,0,,0
1989-08-26T15:06:40.350 ,0,0,,0,,0,,0,,0
1989-08-26T15:06:52.350 ,0,0,,0,,0,,0,,0
1989-08-26T15:06:49.350 ,0,0,0.,12.0,0.,12.0,0.,12.0,0.,12.0
1989-08-26T15:07:01.350 ,0,0,0.,12.0,0.,12.0,0.,12.0,0.,12.0
1989-08-26T15:07:13.350 ,7,1,0.,12.0,0.,12.0,0.,12.0,0.,12.0
1989-08-26T15:07:25.350 ,7,1,0.,12.0,0.,12.0,0.,12.0,0.,12.0
1989-08-26T15:07:37.350 ,7,0,0.,12.0,0.,12.0,0.,12.0,0.,12.0
1989-08-26T15:07:49.350 ,7,0,0.,12.0,0.,12.0,0.,12.0,0.,12.0
1989-08-26T15:08:01.350 ,7,1,0.,12.0,1.,12.0,0.,12.0,0.,12.0
1989-08-26T15:08:13.350 ,7,1,0.,12.0,0.,12.0,0.,12.0,0.,12.0
1989-08-26T15:08:25.350 ,7,0,0.,12.0,0.,12.0,0.,12.0,0.,12.0
1989-08-26T15:08:37.350 ,7,0,0.,12.0,0.,12.0,0.,12.0,0.,12.0
1989-08-26T15:08:49.350 ,6,1,0.,12.0,0.,12.0,0.,12.0,0.,12.0
1989-08-26T15:09:01.350 ,6,1,0.,12.0,0.,12.0,0.,12.0,0.,12.0
1989-08-26T15:09:13.350 ,6,0,0.,12.0,0.,12.0,0.,12.0,0.,12.0
1989-08-26T15:09:25.350 ,6,0,0.,12.0,0.,12.0,0.,12.0,0.,12.0
1989-08-26T15:09:37.350 ,5,1,0.,12.0,0.,12.0,0.,12.0,0.,12.0
1989-08-26T15:09:49.350 ,5,1,0.,12.0,0.,12.0,0.,12.0,0.,12.0
1989-08-26T15:10:01.350 ,5,0,0.,12.0,0.,12.0,0.,12.0,0.,12.0
1989-08-26T15:10:13.350 ,5,0,0.,12.0,0.,12.0,0.,12.0,0.,12.0
1989-08-26T15:10:25.350 ,4,1,0.,12.0,0.,12.0,0.,12.0,0.,12.0
1989-08-26T15:10:37.350 ,4,1,0.,12.0,0.,12.0,0.,12.0,0.,12.0
1989-08-26T15:10:49.350 ,4,0,0.,12.0,0.,12.0,0.,12.0,0.,12.0
1989-08-26T15:11:01.350 ,4,0,0.,12.0,0.,12.0,0.,12.0,0.,12.0
1989-08-26T15:11:13.350 ,3,1,0.,12.0,0.,12.0,0.,12.0,0.,12.0
1989-08-26T15:11:25.350 ,3,1,0.,12.0,0.,12.0,0.,12.0,0.,12.0
1989-08-26T15:11:37.350 ,3,0,0.,12.0,0.,12.0,0.,12.0,0.,12.0
1989-08-26T15:11:49.350 ,3,0,0.,12.0,0.,12.0,0.,12.0,0.,12.0
1989-08-26T15:12:01.350 ,2,1,0.,12.0,0.,12.0,0.,12.0,0.,12.0
1989-08-26T15:12:13.350 ,2,1,0.,12.0,0.,12.0,0.,12.0,0.,12.0
1989-08-26T15:12:25.350 ,2,0,0.,12.0,0.,12.0,0.,12.0,0.,12.0
1989-08-26T15:12:37.350 ,2,0,0.,12.0,0.,12.0,0.,12.0,0.,12.0
1989-08-26T15:12:49.350 ,1,1,0.,12.0,0.,12.0,0.,12.0,0.,12.0
1989-08-26T15:13:01.350 ,1,1,0.,12.0,0.,12.0,0.,12.0,0.,12.0
1989-08-26T15:13:13.350 ,1,0,0.,12.0,0.,12.0,0.,12.0,0.,12.0
1989-08-26T15:13:25.350 ,1,0,0.,12.0,0.,12.0,0.,12.0,0.,12.0
1989-08-26T15:13:37.350 ,0,1,0.,12.0,0.,12.0,0.,12.0,0.,12.0
1989-08-26T15:13:49.350 ,0,1,0.,12.0,0.,12.0,0.,12.0,0.,12.0
1989-08-26T15:14:01.350 ,0,0,0.,12.0,0.,12.0,0.,12.0,0.,12.0
1989-08-26T15:14:13.350 ,0,0,0.,12.0,0.,12.0,0.,12.0,0.,12.0
1989-08-26T15:14:25.350 ,0,1,0.,12.0,0.,12.0,0.,12.0,0.,12.0
1989-08-26T15:14:37.350 ,0,1,0.,12.0,0.,12.0,0.,12.0,0.,12.0
1989-08-26T15:14:49.350 ,0,0,0.,12.0,0.,12.0,0.,12.0,0.,12.0
1989-08-26T15:15:01.350 ,0,0,0.,12.0,0.,12.0,0.,12.0,0.,12.0
1989-08-26T15:15:13.350 ,1,1,0.,12.0,0.,12.0,0.,12.0,0.,12.0
1989-08-26T15:15:25.350 ,1,1,0.,12.0,0.,12.0,0.,12.0,0.,12.0
1989-08-26T15:15:37.350 ,1,0,0.,12.0,0.,12.0,0.,12.0,0.,12.0
1989-08-26T15:15:49.350 ,1,0,0.,12.0,0.,12.0,0.,12.0,0.,12.0
1989-08-26T15:16:01.350 ,2,1,0.,12.0,0.,12.0,0.,12.0,0.,12.0
1989-08-26T15:16:13.350 ,2,1,0.,12.0,0.,12.0,0.,12.0,0.,12.0
1989-08-26T15:16:25.350 ,2,0,0.,12.0,0.,12.0,0.,12.0,0.,12.0
1989-08-26T15:16:37.350 ,2,0,0.,12.0,0.,12.0,0.,12.0,0.,12.0
1989-08-26T15:16:49.350 ,3,1,0.,12.0,0.,12.0,0.,12.0,0.,12.0
1989-08-26T15:17:01.350 ,3,1,0.,12.0,0.,12.0,0.,12.0,0.,12.0
1989-08-26T15:17:13.350 ,3,0,0.,12.0,0.,12.0,0.,12.0,0.,12.0
1989-08-26T15:17:25.350 ,3,0,0.,12.0,0.,12.0,0.,12.0,0.,12.0
1989-08-26T15:17:37.350 ,4,1,0.,12.0,0.,12.0,0.,12.0,0.,12.0
1989-08-26T15:17:49.350 ,4,1,0.,12.0,0.,12.0,0.,12.0,0.,12.0
1989-08-26T15:18:01.350 ,4,0,0.,12.0,0.,12.0,0.,12.0,0.,12.0
1989-08-26T15:18:13.350 ,4,0,0.,12.0,0.,12.0,0.,12.0,0.,12.0
1989-08-26T15:18:25.350 ,5,1,0.,12.0,0.,12.0,0.,12.0,0.,12.0
1989-08-26T15:18:37.350 ,5,1,0.,12.0,0.,12.0,0.,12.0,0.,12.0
1989-08-26T15:18:49.350 ,5,0,0.,12.0,0.,12.0,0.,12.0,0.,12.0
1989-08-26T15:19:01.350 ,5,0,0.,12.0,0.,12.0,0.,12.0,0.,12.0
1989-08-26T15:19:13.350 ,6,1,0.,12.0,0.,12.0,0.,12.0,0.,12.0
1989-08-26T15:19:25.350 ,6,1,0.,12.0,0.,12.0,0.,12.0,0.,12.0
1989-08-26T15:19:37.350 ,6,0,0.,12.0,0.,12.0,0.,12.0,0.,12.0
1989-08-26T15:19:49.350 ,6,0,0.,12.0,0.,12.0,0.,12.0,0.,12.0
1989-08-26T15:20:01.350 ,7,1,0.,12.0,0.,12.0,0.,12.0,0.,12.0
1989-08-26T15:20:13.350 ,7,1,0.,12.0,0.,12.0,0.,12.0,0.,12.0
1989-08-26T15:20:25.350 ,7,0,0.,12.0,0.,12.0,0.,12.0,0.,12.0
1989-08-26T15:20:37.350 ,7,0,0.,12.0,0.,12.0,0.,12.0,0.,12.0
1989-08-26T15:20:49.350 ,7,1,0.,12.0,0.,12.0,0.,12.0,0.,12.0
1989-08-26T15:21:01.350 ,7,1,0.,12.0,0.,12.0,0.,12.0,0.,12.0
1989-08-26T15:21:13.350 ,7,0,0.,12.0,0.,12.0,0.,12.0,0.,12.0
1989-08-26T15:21:25.350 ,7,0,0.,12.0,0.,12.0,0.,12.0,0.,12.0
1989-08-26T15:21:37.350 ,6,1,0.,12.0,0.,12.0,0.,12.0,0.,12.0
1989-08-26T15:21:49.350 ,6,1,0.,12.0,0.,12.0,0.,12.0,0.,12.0
1989-08-26T15:22:01.350 ,6,0,0.,12.0,0.,12.0,0.,12.0,0.,12.0
1989-08-26T15:22:13.350 ,6,0,0.,12.0,0.,12.0,0.,12.0,0.,12.0
1989-08-26T15:22:25.350 ,5,1,0.,12.0,0.,12.0,0.,12.0,0.,12.0
1989-08-26T15:22:37.350 ,5,1,0.,12.0,0.,12.0,0.,12.0,0.,12.0
1989-08-26T15:22:49.350 ,5,0,0.,12.0,0.,12.0,0.,12.0,0.,12.0
1989-08-26T15:23:01.350 ,5,0,0.,12.0,0.,12.0,0.,12.0,0.,12.0
1989-08-26T15:23:13.350 ,4,1,0.,12.0,0.,12.0,0.,12.0,0.,12.0
1989-08-26T15:23:25.350 ,4,1,0.,12.0,0.,12.0,0.,12.0,0.,12.0
1989-08-26T15:23:37.350 ,4,0,0.,12.0,0.,12.0,0.,12.0,0.,12.0
1989-08-26T15:23:49.350 ,4,0,0.,12.0,0.,12.0,0.,12.0,0.,12.0
1989-08-26T15:24:01.350 ,3,1,0.,12.0,0.,12.0,0.,12.0,0.,12.0
1989-08-26T15:24:13.350 ,3,1,0.,12.0,0.,12.0,0.,12.0,0.,12.0
1989-08-26T15:24:25.350 ,3,0,0.,12.0,0.,12.0,0.,12.0,0.,12.0
1989-08-26T15:24:37.350 ,3,0,0.,12.0,0.,12.0,0.,12.0,0.,12.0
1989-08-26T15:24:49.350 ,2,1,0.,12.0,0.,12.0,0.,12.0,0.,12.0
1989-08-26T15:25:01.350 ,2,1,0.,12.0,0.,12.0,0.,12.0,0.,12.0
1989-08-26T15:25:13.350 ,2,0,0.,12.0,0.,12.0,0.,12.0,0.,12.0
1989-08-26T15:25:25.350 ,2,0,0.,12.0,0.,12.0,0.,12.0,0.,12.0
1989-08-26T15:25:37.350 ,1,1,0.,12.0,0.,12.0,0.,12.0,0.,12.0
1989-08-26T15:25:49.350 ,1,1,0.,12.0,0.,12.0,0.,12.0,0.,12.0
1989-08-26T15:26:01.350 ,1,0,0.,12.0,0.,12.0,0.,12.0,0.,12.0
1989-08-26T15:26:13.350 ,1,0,0.,12.0,0.,12.0,0.,12.0,0.,12.0
1989-08-26T15:26:25.350 ,0,1,0.,12.0,0.,12.0,0.,12.0,0.,12.0
1989-08-26T15:26:37.350 ,0,1,0.,12.0,0.,12.0,0.,12.0,0.,12.0
1989-08-26T15:26:49.350 ,0,0,0.,12.0,0.,12.0,0.,12.0,0.,12.0
1989-08-26T15:27:01.350 ,0,0,0.,12.0,0.,12.0,0.,12.0,0.,12.0
1989-08-26T15:27:13.350 ,0,1,0.,12.0,0.,12.0,0.,12.0,0.,12.0
1989-08-26T15:27:25.350 ,0,1,0.,12.0,0.,12.0,0.,12.0,0.,12.0
1989-08-26T15:27:37.350 ,0,0,0.,12.0,0.,12.0,0.,12.0,0.,12.0
1989-08-26T15:27:49.350 ,0,0,0.,12.0,0.,12.0,0.,12.0,0.,12.0
1989-08-26T15:28:01.350 ,1,1,0.,12.0,0.,12.0,0.,12.0,0.,12.0
1989-08-26T15:28:13.350 ,1,1,0.,12.0,0.,12.0,0.,12.0,0.,12.0
1989-08-26T15:28:25.350 ,1,0,0.,12.0,0.,12.0,0.,12.0,0.,12.0
1989-08-26T15:28:37.350 ,1,0,0.,12.0,0.,12.0,0.,12.0,0.,12.0
1989-08-26T15:28:49.350 ,2,1,0.,12.0,0.,12.0,0.,12.0,0.,12.0
1989-08-26T15:29:01.350 ,2,1,0.,12.0,0.,12.0,0.,12.0,0.,12.0
1989-08-26T15:29:13.350 ,2,0,0.,12.0,0.,12.0,0.,12.0,0.,12.0
1989-08-26T15:29:25.350 ,2,0,0.,12.0,0.,12.0,0.,12.0,0.,12.0
1989-08-26T15:29:37.350 ,3,1,0.,12.0,0.,12.0,0.,12.0,0.,12.0
1989-08-26T15:29:49.350 ,3,1,0.,12.0,0.,12.0,0.,12.0,0.,12.0
1989-08-26T15:30:01.350 ,3,0,0.,12.0,0.,12.0,0.,12.0,0.,12.0
1989-08-26T15:30:13.350 ,3,0,0.,12.0,0.,12.0,0.,12.0,0.,12.0
1989-08-26T15:30:25.350 ,4,1,0.,12.0,0.,12.0,0.,12.0,0.,12.0
1989-08-26T15:30:37.350 ,4,1,0.,12.0,0.,12.0,0.,12.0,0.,12.0
1989-08-26T15:30:49.350 ,4,0,0.,12.0,0.,12.0,0.,12.0,0.,12.0
1989-08-26T15:31:01.350 ,4,0,0.,12.0,0.,12.0,0.,12.0,0.,12.0
1989-08-26T15:31:13.350 ,5,1,0.,12.0,0.,12.0,0.,12.0,0.,12.0
1989-08-26T15:31:25.350 ,5,1,0.,12.0,0.,12.0,0.,12.0,0.,12.0
1989-08-26T15:31:37.350 ,5,0,0.,12.0,0.,12.0,0.,12.0,0.,12.0
1989-08-26T15:31:49.350 ,5,0,0.,12.0,0.,12.0,0.,12.0,0.,12.0
1989-08-26T15:32:01.350 ,6,1,0.,12.0,0.,12.0,0.,12.0,0.,12.0
1989-08-26T15:32:13.350 ,6,1,0.,12.0,0.,12.0,0.,12.0,0.,12.0
1989-08-26T15:32:25.350 ,6,0,0.,12.0,0.,12.0,0.,12.0,0.,12.0
1989-08-26T15:32:37.350 ,6,0,0.,12.0,0.,12.0,0.,12.0,0.,12.0
1989-08-26T15:32:49.350 ,7,1,0.,12.0,0.,12.0,0.,12.0,0.,12.0
1989-08-26T15:33:01.350 ,7,1,0.,12.0,0.,12.0,0.,12.0,0.,12.0
1989-08-26T15:33:13.350 ,7,0,0.,12.0,0.,12.0,0.,12.0,0.,12.0
1989-08-26T15:33:25.350 ,7,0,0.,12.0,0.,12.0,0.,12.0,0.,12.0
1989-08-26T15:33:37.350 ,7,1,0.,12.0,0.,12.0,0.,12.0,0.,12.0
1989-08-26T15:33:49.350 ,7,1,0.,12.0,0.,12.0,0.,12.0,0.,12.0
1989-08-26T15:34:01.350 ,7,0,0.,12.0,0.,12.0,0.,12.0,0.,12.0
1989-08-26T15:34:13.350 ,7,0,0.,12.0,0.,12.0,0.,12.0,0.,12.0
1989-08-26T15:34:25.350 ,6,1,0.,12.0,0.,12.0,0.,12.0,0.,12.0
1989-08-26T15:34:37.350 ,6,1,0.,12.0,0.,12.0,0.,12.0,0.,12.0
1989-08-26T15:34:49.350 ,6,0,0.,12.0,0.,12.0,0.,12.0,0.,12.0
1989-08-26T15:35:01.350 ,6,0,0.,12.0,0.,12.0,0.,12.0,0.,12.0
1989-08-26T15:35:13.340 ,5,1,0.,12.0,0.,12.0,0.,12.0,0.,12.0
1989-08-26T15:35:25.340 ,5,1,0.,12.0,0.,12.0,0.,12.0,0.,12.0
1989-08-26T15:35:37.340 ,5,0,0.,12.0,0.,12.0,0.,12.0,0.,12.0
1989-08-26T15:35:49.340 ,5,0,0.,12.0,0.,12.0,0.,12.0,0.,12.0
1989-08-26T15:36:01.340 ,4,1,0.,12.0,0.,12.0,0.,12.0,0.,12.0
1989-08-26T15:36:13.340 ,4,1,0.,12.0,0.,12.0,0.,12.0,0.,12.0
1989-08-26T15:36:25.340 ,4,0,0.,12.0,0.,12.0,0.,12.0,0.,12.0
1989-08-26T15:36:37.340 ,4,0,0.,12.0,0.,12.0,0.,12.0,0.,12.0
1989-08-26T15:36:49.340 ,3,1,0.,12.0,0.,12.0,0.,12.0,0.,12.0
1989-08-26T15:37:01.340 ,3,1,0.,12.0,0.,12.0,0.,12.0,0.,12.0
1989-08-26T15:37:13.340 ,3,0,0.,12.0,0.,12.0,0.,12.0,0.,12.0
1989-08-26T15:37:25.340 ,3,0,0.,12.0,0.,12.0,0.,12.0,0.,12.0
1989-08-26T15:37:37.340 ,2,1,0.,12.0,0.,12.0,0.,12.0,0.,12.0
1989-08-26T15:37:49.340 ,2,1,0.,12.0,0.,12.0,0.,12.0,0.,12.0
1989-08-26T15:38:01.340 ,2,0,0.,12.0,0.,12.0,0.,12.0,0.,12.0
1989-08-26T15:38:13.340 ,2,0,0.,12.0,0.,12.0,0.,12.0,0.,12.0
1989-08-26T15:38:25.340 ,1,1,0.,12.0,0.,12.0,0.,12.0,0.,12.0
1989-08-26T15:38:37.340 ,1,1,0.,12.0,0.,12.0,0.,12.0,0.,12.0
1989-08-26T15:38:49.340 ,1,0,0.,12.0,0.,12.0,0.,12.0,0.,12.0
1989-08-26T15:39:01.340 ,1,0,0.,12.0,0.,12.0,0.,12.0,0.,12.0
1989-08-26T15:39:13.340 ,0,1,0.,12.0,0.,12.0,0.,12.0,0.,12.0
1989-08-26T15:39:25.340 ,0,1,0.,12.0,0.,12.0,0.,12.0,0.,12.0
1989-08-26T15:39:37.340 ,0,0,0.,12.0,0.,12.0,0.,12.0,0.,12.0
1989-08-26T15:39:49.340 ,0,0,0.,12.0,0.,12.0,0.,12.0,0.,12.0
1989-08-26T15:40:01.340 ,0,1,0.,12.0,0.,12.0,0.,12.0,0.,12.0
1989-08-26T15:40:13.340 ,0,1,0.,12.0,0.,12.0,0.,12.0,0.,12.0
1989-08-26T15:40:25.340 ,0,0,0.,12.0,0.,12.0,0.,12.0,0.,12.0
1989-08-26T15:40:37.340 ,0,0,0.,12.0,0.,12.0,0.,12.0,0.,12.0
1989-08-26T15:40:49.340 ,1,1,0.,12.0,0.,12.0,0.,12.0,0.,12.0
1989-08-26T15:41:01.340 ,1,1,0.,12.0,0.,12.0,0.,12.0,0.,12.0
1989-08-26T15:41:13.340 ,1,0,0.,12.0,0.,12.0,0.,12.0,0.,12.0
1989-08-26T15:41:25.340 ,1,0,0.,12.0,0.,12.0,0.,12.0,0.,12.0
1989-08-26T15:41:37.340 ,2,1,0.,12.0,0.,12.0,0.,12.0,0.,12.0
1989-08-26T15:41:49.340 ,2,1,0.,12.0,0.,12.0,0.,12.0,0.,12.0
1989-08-26T15:42:01.340 ,2,0,0.,12.0,0.,12.0,0.,12.0,0.,12.0
1989-08-26T15:42:13.340 ,2,0,0.,12.0,0.,12.0,0.,12.0,0.,12.0
1989-08-26T15:42:25.340 ,3,1,0.,12.0,0.,12.0,0.,12.0,0.,12.0
1989-08-26T15:42:37.340 ,3,1,0.,12.0,0.,12.0,0.,12.0,0.,12.0
1989-08-26T15:42:49.340 ,3,0,0.,12.0,0.,12.0,0.,12.0,0.,12.0
1989-08-26T15:43:01.340 ,3,0,0.,12.0,0.,12.0,0.,12.0,0.,12.0
1989-08-26T15:43:13.340 ,4,1,0.,12.0,0.,12.0,0.,12.0,0.,12.0
1989-08-26T15:43:25.340 ,4,1,0.,12.0,0.,12.0,0.,12.0,0.,12.0
1989-08-26T15:43:37.340 ,4,0,0.,12.0,0.,12.0,0.,12.0,0.,12.0
1989-08-26T15:43:49.340 ,4,0,0.,12.0,0.,12.0,0.,12.0,0.,12.0
1989-08-26T15:44:01.340 ,5,1,0.,12.0,0.,12.0,0.,12.0,0.,12.0
1989-08-26T15:44:13.340 ,5,1,0.,12.0,0.,12.0,0.,12.0,0.,12.0
1989-08-26T15:44:25.340 ,5,0,0.,12.0,0.,12.0,0.,12.0,0.,12.0
1989-08-26T15:44:37.340 ,5,0,0.,12.0,0.,12.0,0.,12.0,0.,12.0
1989-08-26T15:44:49.340 ,6,1,0.,12.0,0.,12.0,0.,12.0,0.,12.0
1989-08-26T15:45:01.340 ,6,1,0.,12.0,0.,12.0,0.,12.0,0.,12.0
1989-08-26T15:45:13.340 ,6,0,0.,12.0,0.,12.0,0.,12.0,0.,12.0
1989-08-26T15:45:25.340 ,6,0,0.,12.0,0.,12.0,0.,12.0,0.,12.0
1989-08-26T15:45:37.340 ,7,1,0.,12.0,0.,12.0,0.,12.0,0.,12.0
1989-08-26T15:45:49.340 ,7,1,0.,12.0,0.,12.0,0.,12.0,0.,12.0
1989-08-26T15:46:01.340 ,7,0,0.,12.0,0.,12.0,0.,12.0,0.,12.0
1989-08-26T15:46:13.340 ,7,0,0.,12.0,0.,12.0,0.,12.0,0.,12.0
1989-08-26T15:46:25.340 ,7,1,0.,12.0,0.,12.0,0.,12.0,0.,12.0
1989-08-26T15:46:37.340 ,7,1,0.,12.0,0.,12.0,0.,12.0,0.,12.0
1989-08-26T15:46:49.340 ,7,0,0.,12.0,0.,12.0,0.,12.0,0.,12.0
1989-08-26T15:47:01.340 ,7,0,0.,12.0,0.,12.0,0.,12.0,0.,12.0
1989-08-26T15:47:13.340 ,6,1,0.,12.0,0.,12.0,0.,12.0,0.,12.0
1989-08-26T15:47:25.340 ,6,1,0.,12.0,0.,12.0,0.,12.0,0.,12.0
1989-08-26T15:47:37.340 ,6,0,0.,12.0,0.,12.0,0.,12.0,0.,12.0
1989-08-26T15:47:49.340 ,6,0,0.,12.0,0.,12.0,0.,12.0,0.,12.0
1989-08-26T15:48:01.340 ,5,1,0.,12.0,0.,12.0,0.,12.0,0.,12.0
1989-08-26T15:48:13.340 ,5,1,0.,12.0,0.,12.0,0.,12.0,0.,12.0
1989-08-26T15:48:25.340 ,5,0,0.,12.0,0.,12.0,0.,12.0,0.,12.0
1989-08-26T15:48:37.340 ,5,0,0.,12.0,0.,12.0,0.,12.0,0.,12.0
1989-08-26T15:48:49.340 ,4,1,0.,12.0,0.,12.0,0.,12.0,0.,12.0
1989-08-26T15:49:01.340 ,4,1,0.,12.0,0.,12.0,0.,12.0,0.,12.0
1989-08-26T15:49:13.340 ,4,0,0.,12.0,0.,12.0,0.,12.0,0.,12.0
1989-08-26T15:49:25.340 ,4,0,0.,12.0,0.,12.0,0.,12.0,0.,12.0
1989-08-26T15:49:37.340 ,3,1,0.,12.0,0.,12.0,0.,12.0,0.,12.0
1989-08-26T15:49:49.340 ,3,1,0.,12.0,0.,12.0,0.,12.0,0.,12.0
1989-08-26T15:50:01.340 ,3,0,0.,12.0,0.,12.0,0.,12.0,0.,12.0
1989-08-26T15:50:13.340 ,3,0,0.,12.0,0.,12.0,0.,12.0,0.,12.0
1989-08-26T15:50:25.340 ,2,1,0.,12.0,0.,12.0,0.,12.0,0.,12.0
1989-08-26T15:50:37.340 ,2,1,0.,12.0,0.,12.0,0.,12.0,0.,12.0
1989-08-26T15:50:49.340 ,2,0,0.,12.0,0.,12.0,0.,12.0,0.,12.0
1989-08-26T15:51:01.340 ,2,0,0.,12.0,0.,12.0,0.,12.0,0.,12.0
1989-08-26T15:51:13.340 ,1,1,0.,12.0,0.,12.0,0.,12.0,0.,12.0
1989-08-26T15:51:25.340 ,1,1,0.,12.0,0.,12.0,0.,12.0,0.,12.0
1989-08-26T15:51:37.340 ,1,0,0.,12.0,0.,12.0,0.,12.0,0.,12.0
1989-08-26T15:51:49.340 ,1,0,0.,12.0,0.,12.0,0.,12.0,0.,12.0
1989-08-26T15:52:01.340 ,0,1,0.,12.0,0.,12.0,0.,12.0,0.,12.0
1989-08-26T15:52:13.340 ,0,1,0.,12.0,0.,12.0,0.,12.0,0.,12.0
1989-08-26T15:52:25.340 ,0,0,0.,12.0,0.,12.0,0.,12.0,0.,12.0
1989-08-26T15:52:37.340 ,0,0,0.,12.0,0.,12.0,0.,12.0,0.,12.0
1989-08-26T15:52:49.340 ,0,1,0.,12.0,0.,12.0,0.,12.0,0.,12.0
1989-08-26T15:53:01.340 ,0,1,0.,12.0,0.,12.0,0.,12.0,0.,12.0
1989-08-26T15:53:13.340 ,0,0,0.,12.0,0.,12.0,0.,12.0,0.,12.0
1989-08-26T15:53:25.340 ,0,0,0.,12.0,0.,12.0,0.,12.0,0.,12.0
1989-08-26T15:53:37.340 ,1,1,0.,12.0,0.,12.0,0.,12.0,0.,12.0
1989-08-26T15:53:49.340 ,1,1,0.,12.0,0.,12.0,0.,12.0,0.,12.0
1989-08-26T15:54:01.340 ,1,0,0.,12.0,0.,12.0,0.,12.0,0.,12.0
1989-08-26T15:54:13.340 ,1,0,0.,12.0,0.,12.0,0.,12.0,0.,12.0
1989-08-26T15:54:25.340 ,2,1,0.,12.0,0.,12.0,0.,12.0,0.,12.0
1989-08-26T15:54:37.340 ,2,1,0.,12.0,0.,12.0,0.,12.0,0.,12.0
1989-08-26T15:54:49.340 ,2,0,0.,12.0,0.,12.0,0.,12.0,0.,12.0
1989-08-26T15:55:01.340 ,2,0,0.,12.0,0.,12.0,0.,12.0,0.,12.0
1989-08-26T15:55:13.340 ,3,1,0.,12.0,0.,12.0,0.,12.0,0.,12.0
1989-08-26T15:55:25.340 ,3,1,0.,12.0,0.,12.0,0.,12.0,0.,12.0
1989-08-26T15:55:37.340 ,3,0,0.,12.0,0.,12.0,0.,12.0,0.,12.0
1989-08-26T15:55:49.340 ,3,0,0.,12.0,0.,12.0,0.,12.0,0.,12.0
1989-08-26T15:56:01.340 ,4,1,0.,12.0,0.,12.0,0.,12.0,0.,12.0
1989-08-26T15:56:13.340 ,4,1,0.,12.0,0.,12.0,0.,12.0,0.,12.0
1989-08-26T15:56:25.340 ,4,0,0.,12.0,0.,12.0,0.,12.0,0.,12.0
1989-08-26T15:56:37.340 ,4,0,0.,12.0,0.,12.0,0.,12.0,0.,12.0
1989-08-26T15:56:49.340 ,5,1,0.,12.0,0.,12.0,0.,12.0,0.,12.0
1989-08-26T15:57:01.340 ,5,1,0.,12.0,0.,12.0,0.,12.0,0.,12.0
1989-08-26T15:57:13.340 ,5,0,0.,12.0,0.,12.0,0.,12.0,0.,12.0
1989-08-26T15:57:25.340 ,5,0,0.,12.0,0.,12.0,0.,12.0,0.,12.0
1989-08-26T15:57:37.340 ,6,1,0.,12.0,0.,12.0,0.,12.0,0.,12.0
1989-08-26T15:57:49.340 ,6,1,0.,12.0,0.,12.0,0.,12.0,0.,12.0
1989-08-26T15:58:01.340 ,6,0,0.,12.0,0.,12.0,0.,12.0,0.,12.0
1989-08-26T15:58:13.340 ,6,0,0.,12.0,0.,12.0,0.,12.0,0.,12.0
1989-08-26T15:58:25.340 ,7,1,0.,12.0,0.,12.0,0.,12.0,0.,12.0
1989-08-26T15:58:37.340 ,7,1,0.,12.0,0.,12.0,0.,12.0,0.,12.0
1989-08-26T15:58:49.340 ,7,0,0.,12.0,0.,12.0,0.,12.0,0.,12.0
1989-08-26T15:59:01.340 ,7,0,0.,12.0,0.,12.0,0.,12.0,0.,12.0
1989-08-26T15:59:13.340 ,7,1,0.,12.0,0.,12.0,0.,12.0,0.,12.0
1989-08-26T15:59:25.340 ,7,1,0.,12.0,0.,12.0,0.,12.0,0.,12.0
1989-08-26T15:59:37.340 ,7,0,0.,12.0,0.,12.0,0.,12.0,0.,12.0
1989-08-26T15:59:49.340 ,7,0,0.,12.0,0.,12.0,0.,12.0,0.,12.0
1989-08-26T16:00:01.340 ,6,1,0.,12.0,0.,12.0,0.,12.0,0.,12.0
1989-08-26T16:00:13.340 ,6,1,0.,12.0,0.,12.0,0.,12.0,0.,12.0
1989-08-26T16:00:25.340 ,6,0,0.,12.0,0.,12.0,0.,12.0,0.,12.0
1989-08-26T16:00:37.340 ,6,0,0.,12.0,0.,12.0,0.,12.0,0.,12.0
1989-08-26T16:00:49.340 ,5,1,0.,12.0,0.,12.0,0.,12.0,0.,12.0
1989-08-26T16:01:01.340 ,5,1,0.,12.0,0.,12.0,0.,12.0,0.,12.0
1989-08-26T16:01:13.340 ,5,0,0.,12.0,0.,12.0,0.,12.0,0.,12.0
1989-08-26T16:01:25.340 ,5,0,0.,12.0,0.,12.0,0.,12.0,0.,12.0
1989-08-26T16:01:37.340 ,4,1,0.,12.0,0.,12.0,0.,12.0,0.,12.0
1989-08-26T16:01:49.340 ,4,1,0.,12.0,0.,12.0,0.,12.0,0.,12.0
1989-08-26T16:02:01.340 ,4,0,0.,12.0,0.,12.0,0.,12.0,0.,12.0
1989-08-26T16:02:13.340 ,4,0,0.,12.0,0.,12.0,0.,12.0,0.,12.0
1989-08-26T16:02:25.340 ,3,1,0.,12.0,0.,12.0,0.,12.0,0.,12.0
1989-08-26T16:02:37.340 ,3,1,0.,12.0,0.,12.0,0.,12.0,0.,12.0
1989-08-26T16:02:49.340 ,3,0,0.,12.0,0.,12.0,0.,12.0,0.,12.0
1989-08-26T16:03:01.340 ,3,0,0.,12.0,0.,12.0,0.,12.0,0.,12.0
1989-08-26T16:03:13.340 ,2,1,0.,12.0,0.,12.0,0.,12.0,0.,12.0
1989-08-26T16:03:25.340 ,2,1,0.,12.0,0.,12.0,0.,12.0,0.,12.0
1989-08-26T16:03:37.340 ,2,0,0.,12.0,0.,12.0,0.,12.0,0.,12.0
1989-08-26T16:03:49.340 ,2,0,0.,12.0,0.,12.0,0.,12.0,0.,12.0
1989-08-26T16:04:01.340 ,1,1,0.,12.0,0.,12.0,0.,12.0,0.,12.0
1989-08-26T16:04:13.340 ,1,1,0.,12.0,0.,12.0,0.,12.0,0.,12.0
1989-08-26T16:04:25.340 ,1,0,0.,12.0,0.,12.0,0.,12.0,0.,12.0
1989-08-26T16:04:37.340 ,1,0,0.,12.0,0.,12.0,0.,12.0,0.,12.0
1989-08-26T16:04:49.340 ,0,1,0.,12.0,0.,12.0,0.,12.0,0.,12.0
1989-08-26T16:05:01.340 ,0,1,0.,12.0,0.,12.0,0.,12.0,0.,12.0
1989-08-26T16:05:13.340 ,0,0,0.,12.0,0.,12.0,0.,12.0,0.,12.0
1989-08-26T16:05:25.340 ,0,0,0.,12.0,0.,12.0,0.,12.0,0.,12.0
1989-08-26T16:05:37.340 ,0,1,0.,12.0,0.,12.0,0.,12.0,0.,12.0
1989-08-26T16:05:49.340 ,0,1,0.,12.0,0.,12.0,0.,12.0,0.,12.0
1989-08-26T16:06:01.340 ,0,0,0.,12.0,0.,12.0,0.,12.0,0.,12.0
1989-08-26T16:06:13.340 ,0,0,0.,12.0,0.,12.0,0.,12.0,0.,12.0
1989-08-26T16:06:25.340 ,1,1,0.,12.0,0.,12.0,0.,12.0,0.,12.0
1989-08-26T16:06:37.340 ,1,1,0.,12.0,0.,12.0,0.,12.0,0.,12.0
1989-08-26T16:06:49.340 ,1,0,0.,12.0,0.,12.0,0.,12.0,0.,12.0
1989-08-26T16:07:01.340 ,1,0,0.,12.0,0.,12.0,0.,12.0,0.,12.0
1989-08-26T16:07:13.340 ,2,1,0.,12.0,0.,12.0,0.,12.0,0.,12.0
1989-08-26T16:07:25.340 ,2,1,0.,12.0,0.,12.0,0.,12.0,0.,12.0
1989-08-26T16:07:37.340 ,2,0,0.,12.0,0.,12.0,0.,12.0,0.,12.0
1989-08-26T16:07:49.340 ,2,0,0.,12.0,0.,12.0,0.,12.0,0.,12.0
1989-08-26T16:08:01.340 ,3,1,0.,12.0,0.,12.0,0.,12.0,0.,12.0
1989-08-26T16:08:13.340 ,3,1,0.,12.0,0.,12.0,0.,12.0,0.,12.0
1989-08-26T16:08:25.340 ,3,0,0.,12.0,0.,12.0,0.,12.0,0.,12.0
1989-08-26T16:08:37.340 ,3,0,0.,12.0,0.,12.0,0.,12.0,0.,12.0
1989-08-26T16:08:49.340 ,4,1,0.,12.0,0.,12.0,0.,12.0,0.,12.0
1989-08-26T16:09:01.340 ,4,1,0.,12.0,0.,12.0,0.,12.0,0.,12.0
1989-08-26T16:09:13.340 ,4,0,0.,12.0,0.,12.0,0.,12.0,0.,12.0
1989-08-26T16:09:25.340 ,4,0,0.,12.0,0.,12.0,0.,12.0,0.,12.0
1989-08-26T16:09:37.340 ,5,1,0.,12.0,0.,12.0,0.,12.0,0.,12.0
1989-08-26T16:09:49.340 ,5,1,0.,12.0,0.,12.0,0.,12.0,0.,12.0
1989-08-26T16:10:01.340 ,5,0,0.,12.0,0.,12.0,0.,12.0,0.,12.0
1989-08-26T16:10:13.340 ,5,0,0.,12.0,0.,12.0,0.,12.0,0.,12.0
1989-08-26T16:10:25.340 ,6,1,0.,12.0,0.,12.0,0.,12.0,0.,12.0
1989-08-26T16:10:37.340 ,6,1,0.,12.0,0.,12.0,0.,12.0,0.,12.0
1989-08-26T16:10:49.340 ,6,0,0.,12.0,0.,12.0,0.,12.0,0.,12.0
1989-08-26T16:11:01.340 ,6,0,0.,12.0,0.,12.0,0.,12.0,0.,12.0
1989-08-26T16:11:13.340 ,7,1,0.,12.0,0.,12.0,0.,12.0,0.,12.0
1989-08-26T16:11:25.340 ,7,1,0.,12.0,0.,12.0,0.,12.0,0.,12.0
1989-08-26T16:11:37.340 ,7,0,0.,12.0,0.,12.0,0.,12.0,0.,12.0
1989-08-26T16:11:49.340 ,7,0,0.,12.0,0.,12.0,0.,12.0,0.,12.0
1989-08-26T16:12:01.340 ,7,1,0.,12.0,0.,12.0,0.,12.0,0.,12.0
1989-08-26T16:12:13.340 ,7,1,0.,12.0,0.,12.0,0.,12.0,0.,12.0
1989-08-26T16:12:25.340 ,7,0,0.,12.0,0.,12.0,0.,12.0,0.,12.0
1989-08-26T16:12:37.340 ,7,0,0.,12.0,0.,12.0,0.,12.0,0.,12.0
1989-08-26T16:12:49.340 ,6,1,0.,12.0,0.,12.0,0.,12.0,0.,12.0
1989-08-26T16:13:01.340 ,6,1,0.,12.0,0.,12.0,0.,12.0,0.,12.0
1989-08-26T16:13:13.340 ,6,0,0.,12.0,0.,12.0,0.,12.0,0.,12.0
1989-08-26T16:13:25.340 ,6,0,0.,12.0,0.,12.0,0.,12.0,0.,12.0
1989-08-26T16:13:37.340 ,5,1,0.,12.0,0.,12.0,0.,12.0,0.,12.0
1989-08-26T16:13:49.340 ,5,1,0.,12.0,0.,12.0,0.,12.0,0.,12.0
1989-08-26T16:14:01.340 ,5,0,0.,12.0,0.,12.0,0.,12.0,0.,12.0
1989-08-26T16:14:13.340 ,5,0,0.,12.0,0.,12.0,0.,12.0,0.,12.0
1989-08-26T16:14:25.340 ,4,1,0.,12.0,0.,12.0,0.,12.0,0.,12.0
1989-08-26T16:14:37.340 ,4,1,0.,12.0,0.,12.0,0.,12.0,0.,12.0
1989-08-26T16:14:49.340 ,4,0,0.,12.0,0.,12.0,0.,12.0,0.,12.0
1989-08-26T16:15:01.340 ,4,0,0.,12.0,0.,12.0,0.,12.0,0.,12.0
1989-08-26T16:15:13.340 ,3,1,0.,12.0,0.,12.0,0.,12.0,0.,12.0
1989-08-26T16:15:25.340 ,3,1,0.,12.0,0.,12.0,0.,12.0,0.,12.0
1989-08-26T16:15:37.340 ,3,0,0.,12.0,0.,12.0,0.,12.0,0.,12.0
1989-08-26T16:15:49.340 ,3,0,0.,12.0,0.,12.0,0.,12.0,0.,12.0
1989-08-26T16:16:01.340 ,2,1,0.,12.0,0.,12.0,0.,12.0,0.,12.0
1989-08-26T16:16:13.340 ,2,1,0.,12.0,0.,12.0,0.,12.0,0.,12.0
1989-08-26T16:16:25.340 ,2,0,0.,12.0,0.,12.0,0.,12.0,0.,12.0
1989-08-26T16:16:37.340 ,2,0,0.,12.0,0.,12.0,0.,12.0,0.,12.0
1989-08-26T16:16:49.340 ,1,1,0.,12.0,0.,12.0,0.,12.0,0.,12.0
1989-08-26T16:17:01.340 ,1,1,0.,12.0,0.,12.0,0.,12.0,0.,12.0
1989-08-26T16:17:13.340 ,1,0,0.,12.0,0.,12.0,0.,12.0,0.,12.0
1989-08-26T16:17:25.340 ,1,0,0.,12.0,0.,12.0,0.,12.0,0.,12.0
1989-08-26T16:17:37.340 ,0,1,0.,12.0,0.,12.0,0.,12.0,0.,12.0